EST,Max TemperatureF,Mean TemperatureF,Min TemperatureF,Max Dew PointF,MeanDew PointF,Min DewpointF,Max Humidity, Mean Humidity, Min Humidity, Max Sea Level PressureIn, Mean Sea Level PressureIn, Min Sea Level PressureIn, Max VisibilityMiles, Mean VisibilityMiles, Min VisibilityMiles, Max Wind SpeedMPH, Mean Wind SpeedMPH, Max Gust SpeedMPH,PrecipitationIn, CloudCover, Events, WindDirDegrees
2013-11-1,62,54,46,60,45,40,97,84,71,29.65,29.44,29.09,10,10,4,26,15,41,0.00,8,Rain,236
2013-11-2,47,42,37,46,41,34,98,90,78,30.11,29.84,29.64,10,9,5,13,6,16,0.00,7,Rain,346
2013-11-3,44,37,30,36,33,30,99,78,61,30.43,30.31,30.12,10,10,10,9,3,,0.00,5,,96
2013-11-4,50,41,32,34,29,21,92,62,32,30.44,30.36,30.26,10,10,10,14,9,23,0.00,0,,131
2013-11-5,57,52,47,46,42,35,79,68,59,30.32,30.26,30.13,10,10,10,12,7,16,0.00,7,,172
2013-11-6,56,50,42,55,47,38,97,82,55,30.11,29.90,29.73,10,8,2,25,12,34,0.00,8,Rain,204
2013-11-7,45,40,35,38,30,24,89,70,43,30.13,30.08,29.99,10,10,5,20,11,26,0.00,8,,273
2013-11-8,46,38,30,30,27,21,93,68,38,30.26,30.19,30.11,10,10,10,14,6,17,0.00,4,,237
2013-11-9,53,46,38,40,34,29,69,60,48,30.13,29.88,29.76,10,10,10,22,11,33,0.00,5,,215
2013-11-10,48,40,33,35,30,27,83,64,44,30.25,30.10,29.89,10,10,10,23,12,31,0.00,5,Rain,271
2013-11-11,44,36,28,40,31,21,99,79,64,30.33,30.13,30.03,10,8,1,17,9,25,0.00,7,Snow,271
2013-11-12,34,28,22,25,19,16,91,71,49,30.54,30.48,30.34,10,10,10,15,8,24,0.00,3,,298
2013-11-13,41,30,20,24,17,9,90,60,32,30.52,30.33,30.11,10,10,10,18,7,28,0.00,0,,215
2013-11-14,51,42,33,24,20,17,54,43,33,30.11,30.01,29.92,10,10,10,17,13,26,0.00,0,,214
2013-11-15,54,47,40,29,24,21,61,43,29,30.03,29.98,29.95,10,10,10,13,8,21,0.00,2,,204
2013-11-16,57,48,38,54,42,28,93,77,61,30.06,29.93,29.74,10,10,4,18,8,26,0.00,4,Rain,161
2013-11-17,64,54,43,60,55,40,98,89,81,29.73,29.46,29.17,10,9,2,36,14,56,0.00,8,Rain,185
2013-11-18,46,40,35,42,30,23,84,67,59,30.12,29.80,29.44,10,10,10,29,20,44,0.00,8,,264
2013-11-19,39,33,27,26,22,20,91,64,46,30.39,30.30,30.12,10,10,5,16,7,23,0.00,3,,310
2013-11-20,46,34,23,33,25,19,98,70,36,30.41,30.32,30.21,10,10,7,16,5,21,0.00,0,,121
2013-11-21,51,44,38,44,38,27,98,76,56,30.26,30.20,30.16,10,9,4,13,6,17,0.00,8,Rain,166
2013-11-22,46,36,26,46,35,24,99,89,67,30.37,30.24,30.12,10,7,1,18,5,25,0.00,6,Rain-Snow,292
2013-11-23,29,23,17,25,16,6,92,71,42,30.51,30.36,30.26,10,10,2,23,10,31,0.00,5,Snow,294
2013-11-24,26,20,14,14,10,6,79,65,43,30.57,30.50,30.34,10,10,10,14,9,20,0.00,2,,260
2013-11-25,34,28,21,29,12,0,92,54,31,30.34,30.13,30.01,10,10,5,18,12,28,0.00,5,Snow,207
2013-11-26,33,31,29,31,29,24,96,88,79,30.05,29.99,29.92,10,8,3,13,8,17,0.00,8,Rain-Snow,220
2013-11-27,29,23,17,25,13,7,84,66,43,30.17,30.03,29.94,10,10,5,20,11,28,0.00,3,Snow,303
2013-11-28,28,21,14,23,17,11,96,79,53,30.40,30.27,30.18,10,8,1,8,3,,0.00,7,Snow,184
2013-11-29,31,27,23,25,22,18,97,82,65,30.64,30.55,30.41,10,10,5,8,2,,0.00,5,Snow,118
2013-11-30,46,36,27,28,24,20,81,62,44,30.51,30.24,30.05,10,10,10,14,7,20,0.00,3,,173